Oscoda, MI

4:43 PM EST on December 06, 2019 (GMT -0500)
Oscoda-Wurtsmith

Weather History for KOSC - October, 2019

Change the Weather History Date:

Thursday, October 10, 2019

  Actual Average Record
Temperature  
Mean Temperature 50 °F -  
Max Temperature 63 °F 58 °F 75 °F (2018)
Min Temperature 37 °F 40 °F 29 °F (2016)
Degree Days  
Heating Degree Days 15    
Moisture  
Dew Point 49 °F    
Average Humidity 82    
Maximum Humidity 100    
Minimum Humidity 71    
Precipitation  
Precipitation 0.00 in - - ()
Sea Level Pressure  
Sea Level Pressure 30.22 in    
Wind  
Wind Speed 5 mph (ESE)    
Max Wind Speed 13 mph    
Max Gust Speed 17 mph    
Visibility 10 miles    
Events      
Averages and records for this station are not official NWS values.
T = Trace of Precipitation, MM = Missing Value Source: NWS Daily Summary

Daily Weather History Graph

Daily Weather History Graph

Search for Another Location

Airport or City:

Astronomy

Oct. 10, 2019 Rise Set
Actual Time 7:42 AM EDT 6:58 PM EDT
Civil Twilight 7:12 AM EDT 7:27 PM EDT
Nautical Twilight 6:39 AM EDT 8:00 PM EDT
Astronomical Twilight 6:05 AM EDT 8:34 PM EDT
Moon 6:08 PM EDT (10/10) 4:13 AM EDT (10/10)
Length of Visible Light 12h 14m
Length of Day
11h 16m
Waxing Gibbous, 91% of the Moon is Illuminated
Oct 10
Waxing Gibbous
Oct 13
Full
Oct 21
Last Quarter
Oct 27
New
Nov 4
First Quarter

Hourly Weather History & Observations

Time (EDT) Temp. Dew Point Humidity Pressure Visibility Wind Dir Wind Speed Gust Speed Precip Events Conditions
12:17 AM 57.6 °F 50.9 °F 78% 30.26 in 10.0 mi SE 6.9 mph - N/A   Clear
12:35 AM 56.7 °F 50.9 °F 81% 30.26 in 10.0 mi SSE 3.5 mph - N/A   Clear
12:36 AM 56.5 °F 50.9 °F 82% 30.26 in 10.0 mi SSE 3.5 mph - N/A   Clear
12:55 AM 56.3 °F 50.4 °F 80% 30.25 in 10.0 mi SE 4.6 mph - N/A   Clear
12:56 AM 56.3 °F 50.2 °F 80% 30.25 in 10.0 mi SE 4.6 mph - N/A   Clear
1:15 AM 55.9 °F 49.3 °F 78% 30.25 in 10.0 mi SE 4.6 mph - N/A   Clear
1:38 AM 56.3 °F 48.2 °F 74% 30.24 in 10.0 mi SE 6.9 mph - N/A   Clear
1:56 AM 55.8 °F 47.7 °F 74% 30.24 in 10.0 mi SE 6.9 mph - N/A   Clear
2:15 AM 54.9 °F 47.3 °F 76% 30.24 in 10.0 mi SSE 4.6 mph - N/A   Clear
2:16 AM 54.9 °F 47.3 °F 76% 30.24 in 10.0 mi SSE 5.8 mph - N/A   Clear
2:35 AM 54.3 °F 47.3 °F 77% 30.25 in 10.0 mi SSE 5.8 mph - N/A   Clear
2:36 AM 54.1 °F 47.3 °F 78% 30.25 in 10.0 mi SSE 4.6 mph - N/A   Clear
2:58 AM 53.4 °F 47.3 °F 80% 30.24 in 10.0 mi Calm Calm - N/A   Clear
3:17 AM 45.9 °F 41.9 °F 86% 30.24 in 10.0 mi Calm Calm - N/A   Clear
3:35 AM 41.7 °F 39.0 °F 90% 30.24 in 10.0 mi Calm Calm - N/A   Clear
3:55 AM 41.4 °F 39.2 °F 92% 30.24 in 10.0 mi Calm Calm - N/A   Clear
3:56 AM 41.5 °F 39.2 °F 91% 30.24 in 10.0 mi Calm Calm - N/A   Clear
4:15 AM 42.8 °F 40.5 °F 91% 30.24 in 10.0 mi Calm Calm - N/A   Clear
4:38 AM 40.1 °F 36.7 °F 88% 30.24 in 10.0 mi Calm Calm - N/A   Clear
4:56 AM 40.1 °F 37.6 °F 91% 30.24 in 3.0 mi Calm Calm - N/A   Scattered Clouds
5:15 AM 38.5 °F 36.0 °F 91% 30.25 in 10.0 mi Calm Calm - N/A   Scattered Clouds
5:35 AM 39.2 °F 37.4 °F 93% 30.25 in 2.0 mi Calm Calm - N/A   Scattered Clouds
5:59 AM 39.4 °F 36.5 °F 89% 30.25 in 10.0 mi Calm Calm - N/A   Scattered Clouds
6:17 AM 39.2 °F 36.9 °F 91% 30.25 in 10.0 mi Calm Calm - N/A   Clear
6:35 AM 38.3 °F 35.1 °F 88% 30.26 in 10.0 mi Calm Calm - N/A   Clear
6:55 AM 37.9 °F 36.7 °F 95% 30.26 in 2.0 mi Calm Calm - N/A   Clear
7:15 AM 38.5 °F 37.8 °F 97% 30.26 in 4.0 mi Calm Calm - N/A   Clear
7:38 AM 37.4 °F 36.1 °F 95% 30.26 in 3.0 mi Calm Calm - N/A   Scattered Clouds
7:56 AM 37.4 °F 37.4 °F 100% 30.26 in 0.8 mi Calm Calm - N/A   Overcast
8:15 AM 38.3 °F 38.3 °F 100% 30.26 in 10.0 mi Calm Calm - N/A   Mostly Cloudy
8:35 AM 38.7 °F 38.5 °F 99% 30.26 in 10.0 mi Calm Calm - N/A   Clear
8:59 AM 42.6 °F 42.4 °F 99% 30.26 in 10.0 mi Calm Calm - N/A   Clear
9:17 AM 45.0 °F 45.0 °F 100% 30.26 in 10.0 mi Calm Calm - N/A   Clear
9:35 AM 47.7 °F 46.9 °F 97% 30.26 in 10.0 mi Calm Calm - N/A   Clear
9:55 AM 54.3 °F 50.9 °F 88% 30.26 in 10.0 mi Calm Calm - N/A   Clear
10:15 AM 59.0 °F 53.6 °F 82% 30.26 in 10.0 mi ESE 8.1 mph - N/A   Scattered Clouds
10:20 AM 58.8 °F 53.8 °F 83% 30.26 in 10.0 mi ESE 6.9 mph - N/A   Mostly Cloudy
10:38 AM 59.4 °F 54.0 °F 82% 30.26 in 10.0 mi SE 6.9 mph - N/A   Overcast
10:56 AM 59.7 °F 53.8 °F 81% 30.26 in 10.0 mi ESE 9.2 mph - N/A   Overcast
11:15 AM 60.8 °F 54.1 °F 79% 30.26 in 10.0 mi ESE 8.1 mph - N/A   Overcast
11:35 AM 60.4 °F 54.0 °F 79% 30.25 in 10.0 mi ESE 9.2 mph - N/A   Overcast
11:59 AM 61.5 °F 53.6 °F 75% 30.25 in 10.0 mi ESE 10.4 mph 16.1 mph N/A   Mostly Cloudy
12:17 PM 61.5 °F 53.8 °F 76% 30.25 in 10.0 mi SE 9.2 mph - N/A   Scattered Clouds
12:35 PM 62.1 °F 53.4 °F 73% 30.25 in 10.0 mi ESE 9.2 mph - N/A   Clear
12:55 PM 61.7 °F 53.4 °F 74% 30.25 in 10.0 mi ESE 9.2 mph - N/A   Clear
1:15 PM 62.6 °F 54.0 °F 73% 30.24 in 10.0 mi SE 6.9 mph - N/A   Clear
1:20 PM 62.6 °F 53.8 °F 73% 30.24 in 10.0 mi SE 6.9 mph - N/A   Clear
1:38 PM 62.4 °F 53.6 °F 73% 30.23 in 10.0 mi ESE 9.2 mph - N/A   Clear
1:56 PM 62.6 °F 53.8 °F 73% 30.23 in 10.0 mi East 8.1 mph - N/A   Clear
2:15 PM 63.0 °F 53.6 °F 71% 30.22 in 10.0 mi ESE 6.9 mph - N/A   Clear
2:35 PM 63.3 °F 54.0 °F 71% 30.22 in 10.0 mi ESE 9.2 mph - N/A   Clear
2:36 PM 63.5 °F 54.0 °F 71% 30.22 in 10.0 mi ESE 9.2 mph - N/A   Clear
3:17 PM 62.8 °F 53.8 °F 72% 30.20 in 10.0 mi ESE 10.4 mph - N/A   Clear
3:35 PM 62.4 °F 53.8 °F 73% 30.20 in 10.0 mi ESE 8.1 mph - N/A   Clear
3:55 PM 62.1 °F 53.8 °F 74% 30.20 in 10.0 mi East 9.2 mph - N/A   Clear
4:15 PM 61.7 °F 53.8 °F 75% 30.19 in 10.0 mi ESE 8.1 mph - N/A   Clear
4:20 PM 61.7 °F 54.1 °F 76% 30.19 in 10.0 mi East 10.4 mph - N/A   Clear
4:38 PM 61.7 °F 54.5 °F 77% 30.18 in 10.0 mi ESE 10.4 mph - N/A   Clear
4:56 PM 61.7 °F 53.8 °F 75% 30.18 in 10.0 mi ESE 11.5 mph - N/A   Clear
5:15 PM 61.7 °F 53.8 °F 75% 30.18 in 10.0 mi ESE 8.1 mph - N/A   Clear
5:35 PM 61.5 °F 53.8 °F 76% 30.17 in 10.0 mi East 10.4 mph - N/A   Clear
5:36 PM 61.3 °F 53.8 °F 76% 30.17 in 10.0 mi East 10.4 mph - N/A   Clear
5:59 PM 60.3 °F 54.5 °F 81% 30.17 in 10.0 mi East 10.4 mph 16.1 mph N/A   Clear
6:17 PM 60.1 °F 54.1 °F 81% 30.16 in 10.0 mi East 11.5 mph - N/A   Clear
6:35 PM 59.7 °F 53.6 °F 80% 30.16 in 10.0 mi ESE 9.2 mph - N/A   Clear
6:36 PM 59.7 °F 53.6 °F 80% 30.16 in 10.0 mi ESE 10.4 mph - N/A   Clear
6:55 PM 59.4 °F 53.8 °F 82% 30.16 in 10.0 mi East 9.2 mph - N/A   Clear
7:15 PM 59.2 °F 53.8 °F 82% 30.16 in 10.0 mi East 9.2 mph - N/A   Clear
7:38 PM 59.0 °F 53.8 °F 83% 30.17 in 10.0 mi ESE 8.1 mph - N/A   Clear
7:56 PM 59.0 °F 54.0 °F 83% 30.17 in 10.0 mi ESE 8.1 mph - N/A   Clear
8:15 PM 59.0 °F 54.0 °F 83% 30.16 in 10.0 mi ESE 8.1 mph - N/A   Clear
8:16 PM 59.0 °F 54.0 °F 83% 30.16 in 10.0 mi ESE 8.1 mph - N/A   Clear
8:35 PM 59.0 °F 54.0 °F 83% 30.16 in 10.0 mi ESE 8.1 mph - N/A   Clear
8:36 PM 59.0 °F 54.0 °F 83% 30.16 in 10.0 mi ESE 8.1 mph - N/A   Clear
8:59 PM 59.0 °F 53.8 °F 83% 30.15 in 10.0 mi ESE 5.8 mph - N/A   Clear
9:17 PM 59.0 °F 53.6 °F 82% 30.15 in 10.0 mi ESE 6.9 mph - N/A   Clear
9:35 PM 59.2 °F 53.1 °F 80% 30.15 in 10.0 mi ESE 8.1 mph - N/A   Clear
9:36 PM 59.2 °F 53.1 °F 80% 30.15 in 10.0 mi ESE 8.1 mph - N/A   Clear
9:55 PM 59.4 °F 53.1 °F 80% 30.14 in 10.0 mi ESE 10.4 mph - N/A   Clear
9:56 PM 59.4 °F 53.1 °F 80% 30.14 in 10.0 mi ESE 11.5 mph - N/A   Clear
10:15 PM 59.5 °F 53.6 °F 81% 30.15 in 10.0 mi ESE 9.2 mph - N/A   Clear
10:38 PM 59.9 °F 53.2 °F 79% 30.15 in 10.0 mi SE 11.5 mph - N/A   Clear
10:55 PM 59.9 °F 52.0 °F 75% 30.15 in 10.0 mi SE 10.4 mph 17.3 mph N/A   Clear
11:15 PM 59.4 °F 51.4 °F 75% 30.15 in 10.0 mi SE 11.5 mph 17.3 mph N/A   Clear
11:35 PM 59.0 °F 50.9 °F 74% 30.15 in 10.0 mi SE 12.7 mph - N/A   Clear
11:59 PM 58.8 °F 50.9 °F 75% 30.15 in 10.0 mi SE 9.2 mph - N/A   Clear